Burlington, IA

2:54 AM CDT on September 26, 2016 (GMT -0500)
Burlington Regional

Weather History for KBRL - August, 2013

Change the Weather History Date:

Friday, August 30, 2013

  Actual Average Record
Temperature  
Mean Temperature 88 °F 73 °F  
Max Temperature 100 °F 84 °F 102 °F (1947)
Min Temperature 75 °F 63 °F 46 °F (1915)
Degree Days  
Heating Degree Days 0 0  
Month to date heating degree days 3 0  
Since 1 June heating degree days 26 14  
Since 1 July heating degree days 11 1  
Cooling Degree Days 23 8  
Month to date cooling degree days 280 306  
Year to date cooling degree days 884 1035  
Since 1 June cooling degree days 785 932  
Growing Degree Days 38 (Base 50)    
Moisture  
Dew Point 72 °F    
Average Humidity 66    
Maximum Humidity 100    
Minimum Humidity 31    
Precipitation  
Precipitation 0.00 in 0.15 in 1.33 in (1993)
Month to date precipitation T 4.12  
Year to date precipitation 27.06 27.10  
Sea Level Pressure  
Sea Level Pressure 29.85 in    
Wind  
Wind Speed 5 mph (SSW)    
Max Wind Speed 13 mph    
Max Gust Speed 16 mph    
Visibility 5 miles    
Events      
T = Trace of Precipitation, MM = Missing Value Source: NWS Daily Summary

Daily Weather History Graph

Daily Weather History Graph

Search for Another Location

Airport or City:

Trip Planner

Search our weather history database for the weather conditions in past years. The results will help you decide how hot, cold, wet, or windy it might be!

Date:

Astronomy

Aug. 30, 2013 Rise Set
Actual Time 6:29 AM CDT 7:39 PM CDT
Civil Twilight 6:01 AM CDT 8:07 PM CDT
Nautical Twilight 5:27 AM CDT 8:41 PM CDT
Astronomical Twilight 4:52 AM CDT 9:16 PM CDT
Moon 1:07 AM CDT (8/30) 3:56 PM CDT (8/30)
Length of Visible Light 14h 06m
Length of Day
13h 09m
Waning Crescent, 29% of the Moon is Illuminated
Aug 30
Waning Crescent
Sep 5
New
Sep 12
First Quarter
Sep 19
Full
Sep 26
Last Quarter

Hourly Weather History & Observations

Time (CDT) Temp. Heat Index Dew Point Humidity Pressure Visibility Wind Dir Wind Speed Gust Speed Precip Events Conditions
12:53 AM 77.0 °F - 75.0 °F 94% 29.95 in 7.0 mi SSE 3.5 mph - N/A   Clear
1:53 AM 77.0 °F - 75.0 °F 94% 29.94 in 6.0 mi South 5.8 mph - N/A   Clear
2:53 AM 75.9 °F - 75.0 °F 97% 29.93 in 5.0 mi South 3.5 mph - N/A   Clear
3:53 AM 77.0 °F - 75.0 °F 94% 29.92 in 5.0 mi South 6.9 mph - N/A   Scattered Clouds
4:53 AM 77.0 °F - 75.0 °F 94% 29.91 in 6.0 mi SSW 3.5 mph - N/A   Mostly Cloudy
5:53 AM 75.9 °F - 75.0 °F 97% 29.91 in 4.0 mi South 5.8 mph - N/A   Clear
6:37 AM 75.2 °F - 75.2 °F 100% 29.92 in 2.5 mi South 4.6 mph - N/A   Clear
6:53 AM 75.0 °F - 73.9 °F 96% 29.91 in 2.5 mi SSW 4.6 mph - N/A   Clear
7:38 AM 75.2 °F - 75.2 °F 100% 29.92 in 3.0 mi SSW 5.8 mph - N/A   Clear
7:53 AM 77.0 °F - 75.0 °F 94% 29.90 in 5.0 mi SSW 6.9 mph - N/A   Clear
8:53 AM 81.0 °F 86.7 °F 75.0 °F 82% 29.90 in 7.0 mi SW 5.8 mph - N/A   Clear
9:53 AM 86.0 °F 96.0 °F 75.9 °F 72% 29.89 in 7.0 mi WSW 6.9 mph - N/A   Clear
10:53 AM 90.0 °F 100.2 °F 75.0 °F 61% 29.88 in 10.0 mi SW 6.9 mph - N/A   Clear
11:53 AM 91.9 °F 103.2 °F 75.0 °F 58% 29.86 in 10.0 mi SSW 8.1 mph - N/A   Clear
12:53 PM 95.0 °F 105.2 °F 73.9 °F 50% 29.85 in 8.0 mi South 8.1 mph - N/A   Clear
2:53 PM 97.0 °F 104.8 °F 71.1 °F 43% 29.82 in 6.0 mi SSW 8.1 mph - N/A   Haze
3:44 PM 98.6 °F 101.0 °F 64.4 °F 32% 29.83 in 2.5 mi Variable 5.8 mph - N/A   Haze
3:53 PM 100.0 °F 103.0 °F 64.0 °F 31% 29.81 in 1.8 mi NW 5.8 mph - N/A   Haze
4:03 PM 98.6 °F 101.0 °F 64.4 °F 32% 29.82 in 3.0 mi WSW 4.6 mph - N/A   Haze
4:53 PM 98.1 °F 101.8 °F 66.0 °F 35% 29.79 in 6.0 mi WSW 6.9 mph - N/A   Haze
5:53 PM 97.0 °F 99.9 °F 64.9 °F 35% 29.77 in 10.0 mi West 5.8 mph - N/A   Clear
6:53 PM 93.9 °F 97.5 °F 66.9 °F 41% 29.78 in 6.0 mi Calm Calm - N/A   Haze
7:16 PM 89.6 °F 96.2 °F 71.6 °F 55% 29.80 in 0.8 mi Calm Calm - N/A   Haze
7:26 PM 86.0 °F 91.8 °F 71.6 °F 62% 29.80 in 3.0 mi Calm Calm - N/A   Haze
7:53 PM 86.0 °F 90.7 °F 70.0 °F 59% 29.78 in 6.0 mi Calm Calm - N/A   Haze
8:53 PM 82.9 °F 87.0 °F 70.0 °F 65% 29.78 in 6.0 mi Calm Calm - N/A   Haze
9:36 PM 80.6 °F 83.9 °F 69.8 °F 70% 29.79 in 2.5 mi Calm Calm - N/A   Haze
9:43 PM 80.6 °F 83.9 °F 69.8 °F 70% 29.79 in 4.0 mi Calm Calm - N/A   Haze
9:53 PM 79.0 °F - 70.0 °F 74% 29.77 in 4.0 mi Calm Calm - N/A   Haze
10:53 PM 80.1 °F 83.8 °F 72.0 °F 76% 29.78 in 7.0 mi SSW 4.6 mph - N/A   Partly Cloudy
11:53 PM 80.1 °F 83.6 °F 71.1 °F 74% 29.77 in 10.0 mi South 4.6 mph - N/A   Clear